[[{"header":{"parameterUnit":"m.s-1","parameterCategory":1,"la1":30.2991,"la2":30.254,"lo1":-89.0895,"lo2":-89.0444,"dy":0.0017,"dx":0.0017,"nx":28,"ny":28,"refTime":"2023-04-12T21:00:00:Z","depth":0,"parameterNumber":2,"parameterNumberName":"U-component_of_WINDS"},"data":[0,0,0,0,0,0,0,0,0,0,0,0,0,0,0,0,0,0,0,0,0,0,0,0,0,0,0,0,0,0,0,0,0,0,0,0,0,0,0,0,0,0,0,0,0,0,0,0,0,0,0,0,0,0,0,0,0,0,7.4006,7.4009,0,7.4276,7.428,7.4283,7.4234,7.423,7.4225,7.422,7.45,7.4512,7.4523,0,0,0,0,0,0,0,0,0,0,0,0,0,7.3447,7.3458,7.4006,7.4009,7.4012,7.4276,7.428,7.4283,7.4235,7.4229,7.4224,7.4218,7.4496,7.451,7.4525,0,0,0,0,0,0,0,0,0,0,0,0,0,7.3701,7.3461,7.4005,7.402,7.4024,7.4275,7.428,7.4284,7.4236,7.4229,7.4222,7.4215,7.4492,7.4509,7.4527,7.4781,0,0,7.4581,7.4589,0,0,0,0,0,0,0,0,7.3687,7.3722,7.4014,7.4019,7.4024,7.4214,7.4185,7.4451,7.4238,7.4156,7.422,7.4212,7.4411,7.4435,7.4502,7.4794,7.4806,7.4583,7.4594,7.4601,7.4606,0,0,0,0,0,0,0,7.3669,7.371,7.4113,7.4019,7.4025,7.4013,7.4041,7.4235,7.4321,7.4163,7.416,7.4192,7.4412,7.4485,7.4508,7.481,7.4582,7.4598,7.4609,7.4616,7.532,7.5328,0,0,0,0,0,0,7.3647,7.3695,7.4104,7.4121,7.3834,7.4029,7.4061,7.4161,7.4318,7.4335,7.4198,7.4189,7.4458,7.4487,7.4518,7.4823,7.4601,7.4618,7.4628,7.5312,7.5322,7.533,0,0,0,0,0,0,7.3635,7.3684,7.4093,7.3908,7.3959,7.4046,7.4159,7.417,7.4242,7.4345,7.436,7.4256,7.4453,7.4492,7.4714,7.4832,7.4626,7.4642,7.5303,7.5315,7.5326,7.5436,0,0,0,0,0,0,7.3619,7.368,7.3777,7.391,7.3969,7.4286,7.4166,7.418,7.4272,7.4263,7.4404,7.442,7.445,7.4688,7.4732,7.4853,7.4656,7.5292,7.5308,7.5322,7.5423,7.5451,7.5475,0,0,0,0,0,7.3599,7.3799,7.3782,7.3832,7.4093,7.4293,7.4327,7.4357,7.4282,7.4381,7.4446,7.4416,7.4812,7.4711,7.4761,7.4888,7.5285,7.5304,7.5321,7.5411,7.5445,7.5474,0,0,0,0,0,0,7.368,7.3817,7.38,7.4049,7.4159,7.4284,7.441,7.4393,7.4528,7.4513,7.4546,7.4578,7.4803,7.4868,7.4753,7.514,7.5038,7.5067,7.5089,7.5123,7.5148,7.5127,7.4671,0,0,0,0,0,7.3726,7.3877,7.3989,7.4197,7.4253,7.4322,7.4411,7.4424,7.454,7.4587,7.4669,7.4784,7.4934,7.5032,7.5176,7.5432,7.546,7.5544,7.557,7.559,7.5614,7.5751,7.5789,7.5389,7.5389,7.5389,0,0,7.3824,7.3917,7.4011,7.4216,7.4303,7.4458,7.4362,7.4531,7.4646,7.4613,7.4827,7.4891,7.5021,7.526,7.537,7.5321,7.5731,7.5613,7.5629,7.5642,7.5774,7.5811,7.5845,7.5401,7.5399,7.5397,0,0,7.4081,7.4168,7.4349,7.4438,7.457,7.4614,7.4658,7.4786,7.4826,7.5041,7.5019,7.5156,7.5415,7.5507,7.5588,7.5876,7.5852,7.5922,7.6058,7.6191,7.6222,7.625,7.635,7.6386,7.5946,7.5947,7.5947,0,7.4186,7.4418,7.4445,7.4615,7.4705,7.4681,7.4864,7.4949,7.5123,7.5185,7.5128,7.5449,7.5535,7.5794,7.5864,7.5931,7.598,7.5906,7.6215,7.6244,7.627,7.6366,7.6404,7.5954,7.5953,7.5952,7.5952,0,7.4539,7.4701,7.4831,7.4997,7.5102,7.5278,7.5331,7.5433,7.5437,7.5487,7.5704,7.5806,7.5968,7.6031,7.6038,7.6291,7.6256,7.6207,7.6105,7.6315,7.6406,7.6443,7.5965,7.5962,7.596,7.5958,0,0,7.4856,7.5032,7.5079,7.5152,7.5296,7.5421,7.5595,7.5752,7.5838,7.5959,7.6104,7.6322,7.6276,7.6368,7.6385,7.6502,7.672,7.6438,7.6442,7.6485,7.7001,7.7035,7.7078,7.6705,7.6712,7.6718,7.6989,0,7.5124,7.543,7.5458,7.5733,7.5881,7.5859,7.601,7.6114,7.6164,7.6297,7.6353,7.6505,7.6436,7.649,7.6605,7.6669,7.6824,7.665,7.6839,7.6846,7.6805,7.7125,7.7163,7.7415,7.7025,7.7031,7.7036,0,7.5479,7.5606,7.5895,7.6014,7.6077,7.6213,7.6357,7.6485,7.6602,7.663,7.6731,7.6731,7.6909,7.68,7.7045,7.6926,7.7005,7.7048,7.7058,7.7076,7.6952,7.7149,7.7496,7.7533,7.7092,7.7088,7.7084,0,7.5677,7.5922,7.6125,7.6189,7.6334,7.6429,7.6494,7.6603,7.6695,7.6822,7.6881,7.7028,7.7108,7.7221,7.7259,7.7177,7.7502,7.7397,7.7529,7.7528,7.7597,7.7592,7.7959,7.7652,7.7651,7.7651,7.765,0,7.5973,7.615,7.6215,7.6341,7.6537,7.6567,7.6762,7.6822,7.6918,7.7054,7.7045,7.7172,7.7216,7.7351,7.7383,7.7579,7.7616,7.7643,7.7649,7.7643,7.7639,7.7694,7.7676,7.7661,7.7659,7.7657,7.7655,0,7.6228,7.6279,7.6499,7.6617,7.6651,7.679,7.6891,7.7011,7.7058,7.723,7.7272,7.7347,7.7504,7.7554,7.7746,7.7766,7.7995,7.7987,7.7955,7.7955,7.8083,7.8069,7.8497,7.8553,7.8211,7.8214,7.8217,0,7.6413,7.6548,7.6679,7.6768,7.6836,7.6981,7.7074,7.7108,7.7205,7.7346,7.7448,7.7604,7.773,7.7983,7.8054,7.82,7.8193,7.8333,7.8215,7.8204,7.8192,7.8183,7.8195,7.8355,7.8358,7.8361,7.8364,0,7.6734,7.6752,7.6885,7.7027,7.7137,7.7251,7.7361,7.7435,7.7484,7.7594,7.7753,7.7851,7.8044,7.8198,7.8346,7.8412,7.8396,7.84,7.8438,7.8432,7.8407,7.8419,7.8013,7.839,7.8387,7.8385,7.8384,7.8383,7.6958,7.7076,7.7185,7.7333,7.7419,7.7521,7.7638,7.7699,7.7832,7.7991,7.8004,7.8176,7.8286,7.8482,7.8555,7.869,7.865,7.8706,7.8719,7.8732,7.874,7.8387,7.8718,7.8717,7.8716,7.8716,7.8715,0,7.7276,7.7345,7.7481,7.7633,7.7749,7.7722,7.7842,7.794,7.8091,7.8195,7.8319,7.8501,7.8649,7.8731,7.8879,7.8971,7.8967,7.9008,7.9001,7.9016,7.877,7.8721,7.9009,7.9009,7.9009,7.9009,7.9009,7.9008,7.7456,7.7652,7.7682,7.792,7.7988,7.8155,7.8225,7.8318,7.8401,7.8604,7.8727,7.8778,7.8873,7.9027,7.9161,7.9181,7.9235,7.9281,7.9296,7.9064,7.9034,7.9005,7.8959,7.9293,7.9293,7.9531,7.9533,7.9535]},{"header":{"parameterUnit":"m.s-1","parameterCategory":1,"la1":30.2991,"la2":30.254,"lo1":-89.0895,"lo2":-89.0444,"dy":0.0017,"dx":0.0017,"nx":28,"ny":28,"refTime":"2023-04-12T21:00:00:Z","depth":0,"parameterNumber":3,"parameterNumberName":"V-component_of_WINDS"},"data":[0,0,0,0,0,0,0,0,0,0,0,0,0,0,0,0,0,0,0,0,0,0,0,0,0,0,0,0,0,0,0,0,0,0,0,0,0,0,0,0,0,0,0,0,0,0,0,0,0,0,0,0,0,0,0,0,0,0,3.4215,3.4216,0,3.4315,3.4316,3.4318,3.4295,3.4293,3.4291,3.4289,3.4392,3.4397,3.4401,0,0,0,0,0,0,0,0,0,0,0,0,0,3.4002,3.4006,3.4215,3.4216,3.4217,3.4315,3.4316,3.4318,3.4295,3.4293,3.429,3.4288,3.4391,3.4396,3.4402,0,0,0,0,0,0,0,0,0,0,0,0,0,3.4098,3.4007,3.4214,3.4218,3.4219,3.4315,3.4317,3.4318,3.4295,3.4292,3.429,3.4287,3.4389,3.4396,3.4402,3.4502,0,0,3.4423,3.4426,0,0,0,0,0,0,0,0,3.4092,3.4105,3.4216,3.4217,3.4219,3.4289,3.4279,3.438,3.4296,3.4266,3.4289,3.4286,3.436,3.4369,3.4395,3.4507,3.4511,3.4424,3.4428,3.4431,3.4433,0,0,0,0,0,0,0,3.4086,3.4101,3.4254,3.4217,3.4219,3.4214,3.4224,3.4298,3.4328,3.4269,3.4267,3.4279,3.4361,3.4388,3.4397,3.4512,3.4424,3.443,3.4434,3.4436,3.471,3.4713,0,0,0,0,0,0,3.4078,3.4096,3.4251,3.4257,3.4147,3.422,3.4231,3.427,3.4327,3.4333,3.4282,3.4278,3.4378,3.4389,3.44,3.452,3.4431,3.4437,3.4441,3.4706,3.471,3.4714,0,0,0,0,0,0,3.4073,3.4092,3.4247,3.4176,3.4196,3.4226,3.427,3.4273,3.4301,3.4337,3.4342,3.4304,3.4376,3.4391,3.4476,3.4523,3.444,3.4446,3.4703,3.4708,3.4712,3.476,0,0,0,0,0,0,3.4067,3.409,3.4129,3.4177,3.4199,3.4322,3.4273,3.4277,3.4312,3.4308,3.436,3.4365,3.4375,3.4466,3.4483,3.4531,3.4452,3.4699,3.4705,3.471,3.4755,3.4766,3.4776,0,0,0,0,0,3.406,3.4139,3.4131,3.415,3.4248,3.4325,3.4338,3.4347,3.4316,3.4355,3.4378,3.4364,3.4515,3.4475,3.4494,3.4545,3.4696,3.4703,3.471,3.475,3.4764,3.4776,0,0,0,0,0,0,3.4095,3.4145,3.4137,3.4234,3.4275,3.4321,3.437,3.4361,3.4412,3.4406,3.4415,3.4427,3.4514,3.4538,3.4493,3.4643,3.4601,3.4612,3.4625,3.4639,3.4649,3.4642,3.4457,0,0,0,0,0,3.4114,3.4173,3.4213,3.4295,3.4316,3.4339,3.4373,3.4376,3.442,3.4437,3.4467,3.4509,3.4566,3.4603,3.4658,3.4757,3.4768,3.4801,3.4812,3.482,3.483,3.4884,3.4899,3.4737,3.4737,3.4737,0,0,3.4155,3.4189,3.4226,3.4303,3.4335,3.4395,3.4354,3.442,3.4464,3.4447,3.453,3.4552,3.46,3.4693,3.4735,3.4715,3.4877,3.483,3.4836,3.4842,3.4893,3.4908,3.4922,3.4742,3.4741,3.474,0,0,3.4259,3.4291,3.4362,3.4395,3.4444,3.4459,3.4476,3.4523,3.4537,3.462,3.4608,3.4661,3.4759,3.4793,3.4823,3.4938,3.4927,3.4956,3.5012,3.5064,3.5076,3.5088,3.5128,3.5143,3.4965,3.4965,3.4965,0,3.4303,3.4393,3.44,3.4466,3.45,3.4487,3.4559,3.459,3.4655,3.4678,3.4655,3.4776,3.4808,3.4908,3.4936,3.4961,3.498,3.495,3.5074,3.5085,3.5096,3.5135,3.515,3.4968,3.4968,3.4968,3.4967,0,3.4444,3.4507,3.4558,3.462,3.466,3.4729,3.4746,3.4785,3.4784,3.4801,3.4885,3.4922,3.4983,3.5007,3.5007,3.5107,3.5093,3.5071,3.5029,3.5115,3.5151,3.5166,3.4973,3.4972,3.4971,3.497,0,0,3.4576,3.4639,3.4658,3.4686,3.4738,3.4787,3.4854,3.4913,3.4947,3.4991,3.5048,3.513,3.511,3.5144,3.5148,3.5194,3.5282,3.5167,3.5168,3.5187,3.5393,3.5409,3.5427,3.5274,3.5277,3.5279,3.5389,0,3.4684,3.4804,3.4811,3.4919,3.4976,3.4963,3.5022,3.506,3.5077,3.5128,3.5147,3.5205,3.5175,3.5195,3.524,3.5262,3.5323,3.5254,3.5327,3.5329,3.5316,3.5446,3.5464,3.5566,3.5404,3.5406,3.5408,0,3.4828,3.4876,3.499,3.5033,3.5057,3.511,3.5164,3.5213,3.5255,3.5264,3.5302,3.5299,3.5367,3.5322,3.5416,3.5368,3.5398,3.5413,3.5417,3.5425,3.5374,3.5457,3.5599,3.5614,3.5431,3.5429,3.5427,0,3.4912,3.5005,3.5085,3.5109,3.5161,3.5199,3.5222,3.5262,3.5296,3.5344,3.5366,3.5421,3.5451,3.5493,3.5504,3.547,3.5598,3.5554,3.5608,3.5607,3.5636,3.5634,3.5785,3.5655,3.5654,3.5654,3.5654,0,3.5033,3.5103,3.5123,3.5173,3.525,3.5257,3.5334,3.5355,3.539,3.5442,3.5434,3.5483,3.5495,3.5547,3.5556,3.5632,3.5645,3.5655,3.5656,3.5656,3.5655,3.5676,3.5669,3.5658,3.5657,3.5656,3.5656,0,3.5141,3.5157,3.5243,3.5285,3.5297,3.5353,3.5388,3.5435,3.545,3.5517,3.5533,3.5557,3.5617,3.5632,3.5704,3.571,3.58,3.5795,3.5786,3.5786,3.5839,3.5834,3.6009,3.6032,3.5886,3.5888,3.5889,0,3.5218,3.5271,3.5318,3.5353,3.5378,3.5434,3.5469,3.5477,3.5514,3.5566,3.5606,3.5665,3.5713,3.5809,3.5833,3.5887,3.5883,3.5941,3.5892,3.5889,3.5884,3.5881,3.5886,3.595,3.5952,3.5953,3.5954,0,3.5351,3.5357,3.5408,3.5462,3.5504,3.5546,3.5587,3.5616,3.563,3.5672,3.5733,3.577,3.5842,3.59,3.5955,3.5978,3.5969,3.5969,3.5985,3.5985,3.5977,3.5982,3.5812,3.5966,3.5964,3.5964,3.5963,3.5963,3.5446,3.5492,3.5533,3.559,3.5621,3.5659,3.5705,3.5726,3.5777,3.5836,3.5838,3.5904,3.5944,3.6016,3.6043,3.6094,3.6077,3.6099,3.6105,3.611,3.6115,3.5969,3.6104,3.6104,3.6103,3.6103,3.6103,0,3.5579,3.5604,3.5657,3.5714,3.5758,3.5744,3.5789,3.5827,3.5885,3.5923,3.5969,3.6039,3.6095,3.6123,3.6178,3.6214,3.6211,3.6228,3.6226,3.6231,3.6127,3.6108,3.623,3.623,3.623,3.623,3.623,3.623,3.5654,3.5732,3.5741,3.5834,3.5858,3.5923,3.5949,3.5984,3.6014,3.6092,3.6139,3.6156,3.619,3.6247,3.6298,3.6304,3.6325,3.6345,3.6349,3.6252,3.6239,3.6226,3.6209,3.6349,3.6349,3.6449,3.645,3.645]}]]